This is the latest recevied weather packets stored in our database for station/object DL7KAW-10. If no packets are shown the sender has not sent any weather packets the latest 10 day(s).
| Time | Temp. | Humidity | Pressure | Rain* | Wind** | Luminosity | Snow |
|---|---|---|---|---|---|---|---|
| 1788475028 | 20° C | 71% | 1013.2 hPa | - | - | - | - |
| 1788474128 | 20° C | 70% | 1013.1 hPa | - | - | - | - |
| 1788473228 | 20° C | 70% | 1013.2 hPa | - | - | - | - |
| 1788472327 | 20° C | 71% | 1013.1 hPa | - | - | - | - |
| 1788471427 | 20° C | 72% | 1013.2 hPa | - | - | - | - |
| 1788470527 | 20° C | 70% | 1013 hPa | - | - | - | - |
| 1788469627 | 20° C | 70% | 1013.2 hPa | - | - | - | - |
| 1788468727 | 20° C | 71% | 1013.1 hPa | - | - | - | - |
| 1788467827 | 20° C | 72% | 1013.2 hPa | - | - | - | - |
| 1788466927 | 20° C | 70% | 1013.2 hPa | - | - | - | - |
| 1788466027 | 20° C | 69% | 1013.3 hPa | - | - | - | - |
| 1788465127 | 20° C | 70% | 1013.2 hPa | - | - | - | - |
| 1788464226 | 20° C | 70% | 1013.2 hPa | - | - | - | - |
| 1788463326 | 20° C | 69% | 1013.2 hPa | - | - | - | - |
| 1788462426 | 20° C | 69% | 1013.3 hPa | - | - | - | - |
| 1788461526 | 20° C | 69% | 1013.1 hPa | - | - | - | - |
| 1788460626 | 20° C | 69% | 1013.3 hPa | - | - | - | - |
| 1788459726 | 20° C | 71% | 1013.4 hPa | - | - | - | - |
| 1788458826 | 20° C | 70% | 1013 hPa | - | - | - | - |
| 1788457925 | 20° C | 70% | 1012.8 hPa | - | - | - | - |
| 1788457025 | 20° C | 67% | 1012.8 hPa | - | - | - | - |
| 1788456125 | 20° C | 67% | 1012.8 hPa | - | - | - | - |
| 1788455225 | 20° C | 67% | 1012.7 hPa | - | - | - | - |
| 1788454325 | 20° C | 68% | 1012.7 hPa | - | - | - | - |
| 1788453425 | 20° C | 67% | 1012.7 hPa | - | - | - | - |
* Rain since midnight (hover to see other rain measurements)
** Current wind speed in m/s (hover to see current wind gust speed)